Left ArrowRight Arrow

Hourly Observations for April 2, 2022

Temp ( °F °C ) Dew Point ( °F °C ) Humidity (%) Winds ( mph kmh ) Pressure ( in mb ) Visibility ( mi km ) Precip ( " mm )
12:51 am 00:51 Mostly Clear 39 3.9 27 -2.8 62 62 WNW 16 26 29.62 1003 10 16 0.00 0.00
1:51 am 01:51 Mostly Cloudy 38 3.3 25 -3.9 60 60 W 13 20 29.64 1004 10 16 0.00 0.00
2:51 am 02:51 Clear 37 2.8 23 -5 57 57 WNW 22 35 29.66 1004 10 16 0.00 0.00
3:51 am 03:51 Mostly Clear 36 2.2 22 -5.6 57 57 WNW 21 33 29.68 1005 10 16 0.00 0.00
4:51 am 04:51 Mostly Cloudy 35 1.7 22 -5.6 59 59 WNW 15 24 29.72 1007 10 16 0.00 0.00
5:51 am 05:51 Partly Cloudy 35 1.7 21 -6.1 57 57 WNW 15 24 29.75 1007 10 16 0.00 0.00
6:51 am 06:51 Mostly Cloudy 34 1.1 22 -5.6 61 61 WNW 13 20 29.80 1009 10 16 0.00 0.00
7:51 am 07:51 Mostly Cloudy 35 1.7 22 -5.6 59 59 NW 16 26 29.83 1010 10 16 0.00 0.00
8:51 am 08:51 Mostly Cloudy 38 3.3 23 -5 55 55 WNW 14 22 29.85 1011 10 16 0.00 0.00
9:51 am 09:51 Partly Cloudy 39 3.9 22 -5.6 50 50 NW 15 24 29.87 1012 10 16 0.00 0.00
10:51 am 10:51 Mostly Sunny 41 5 22 -5.6 47 47 NNW 13 20 29.87 1012 10 16 0.00 0.00
11:51 am 11:51 Mostly Sunny 43 6.1 23 -5 45 45 NNW 13 20 29.86 1011 10 16 0.00 0.00
12:51 pm 12:51 Mostly Sunny 45 7.2 21 -6.1 39 39 NW 20 31 29.86 1011 10 16 0.00 0.00
1:51 pm 13:51 Sunny 47 8.3 21 -6.1 36 36 NW 21 33 29.85 1011 10 16 0.00 0.00
2:51 pm 14:51 Sunny 49 9.4 22 -5.6 35 35 NNW 14 22 29.85 1011 10 16 0.00 0.00
3:51 pm 15:51 Sunny 50 10 22 -5.6 33 33 NNW 16 26 29.85 1011 10 16 0.00 0.00
4:51 pm 16:51 Sunny 50 10 20 -6.7 30 30 NNW 13 20 29.85 1011 10 16 0.00 0.00
5:51 pm 17:51 Sunny 48 8.9 19 -7.2 32 32 NNW 13 20 29.86 1011 10 16 0.00 0.00
6:51 pm 18:51 Mostly Sunny 47 8.3 15 -9.4 28 28 NW 10 17 29.87 1012 10 16 0.00 0.00
7:51 pm 19:51 Mostly Clear 43 6.1 15 -9.4 32 32 NW 5 7 29.91 1013 10 16 0.00 0.00
8:51 pm 20:51 Mostly Clear 39 3.9 17 -8.3 41 41 NW 6 9 29.93 1014 10 16 0.00 0.00
9:51 pm 21:51 Partly Cloudy 39 3.9 17 -8.3 41 41 WNW 6 9 29.96 1014 10 16 0.00 0.00
10:51 pm 22:51 Partly Cloudy 37 2.8 17 -8.3 44 44 WNW 5 7 29.96 1015 10 16 0.00 0.00
11:51 pm 23:51 Partly Cloudy 34 1.1 19 -7.2 54 54 Calm 29.97 1015 10 16 0.00 0.00

Powered by Vaisala Xweather